,,Stat6,,Stat2,,Stat8,,Stat9,,Stat10,,Wind1,,Wind1,
time,status,PA1M_AVG,status,PR1M_SUM,status,RH1M_AVG,status,SR1M_AVG,status,TA1M_AVG,status,W1dAve1m,status,W1sAve1m,
2008-07-12, 00:00:00,VALID,915.988,VALID,0,VALID,98.7414,VALID,-0.101885,VALID,20.6589,VALID,128,VALID,0.0119141,
2008-07-12, 00:01:00,VALID,915.997,VALID,0,VALID,98.5494,VALID,-0.0849042,VALID,20.6722,VALID,137,VALID,0,
2008-07-12, 00:02:00,VALID,915.977,VALID,0,VALID,98.4184,VALID,-0.0849042,VALID,20.6592,VALID,137,VALID,0,
2008-07-12, 00:03:00,VALID,915.974,VALID,0,VALID,98.4108,VALID,-0.0679233,VALID,20.6619,VALID,137,VALID,0,
2008-07-12, 00:04:00,VALID,915.98,VALID,0,VALID,98.309,VALID,-0.0679233,VALID,20.6787,VALID,138,VALID,0,
2008-07-12, 00:05:00,VALID,915.951,VALID,0,VALID,98.2493,VALID,-0.0849042,VALID,20.6776,VALID,141,VALID,0,
2008-07-12, 00:06:00,VALID,915.94,VALID,0,VALID,98.2836,VALID,-0.0509425,VALID,20.6682,VALID,162,VALID,0,
2008-07-12, 00:07:00,VALID,915.925,VALID,0,VALID,98.4298,VALID,-0.0509425,VALID,20.6419,VALID,203,VALID,0.18407,
2008-07-12, 00:08:00,VALID,915.926,VALID,0,VALID,98.529,VALID,-0.0509425,VALID,20.613,VALID,280,VALID,0.0352431,
2008-07-12, 00:09:00,VALID,915.92,VALID,0,VALID,98.5481,VALID,-0.0679233,VALID,20.5783,VALID,281,VALID,0,
2008-07-12, 00:10:00,VALID,915.932,VALID,0,VALID,98.6117,VALID,-0.0509425,VALID,20.5221,VALID,281,VALID,0,
2008-07-12, 00:11:00,VALID,915.936,VALID,0,VALID,98.7922,VALID,-0.0339617,VALID,20.4867,VALID,281,VALID,0,
2008-07-12, 00:12:00,VALID,915.919,VALID,0,VALID,98.9168,VALID,-0.0509425,VALID,20.4612,VALID,281,VALID,0,
2008-07-12, 00:13:00,VALID,915.922,VALID,0,VALID,99.0046,VALID,-0.0849042,VALID,20.4247,VALID,281,VALID,0,
2008-07-12, 00:14:00,VALID,915.922,VALID,0,VALID,99.0326,VALID,-0.0339617,VALID,20.4053,VALID,281,VALID,0,
2008-07-12, 00:15:00,VALID,915.924,VALID,0,VALID,99.0961,VALID,-0.0339617,VALID,20.3788,VALID,281,VALID,0,
2008-07-12, 00:16:00,VALID,915.902,VALID,0,VALID,99.2271,VALID,-0.0849042,VALID,20.3828,VALID,281,VALID,0,
2008-07-12, 00:17:00,VALID,915.908,VALID,0,VALID,99.3581,VALID,0,VALID,20.392,VALID,281,VALID,0,
2008-07-12, 00:18:00,VALID,915.909,VALID,0,VALID,99.4509,VALID,-0.0679233,VALID,20.386,VALID,281,VALID,0,
2008-07-12, 00:19:00,VALID,915.908,VALID,0,VALID,99.5361,VALID,0,VALID,20.405,VALID,281,VALID,0,
2008-07-12, 00:20:00,VALID,915.903,VALID,0,VALID,99.4547,VALID,-0.0679233,VALID,20.402,VALID,281,VALID,0,
2008-07-12, 00:21:00,VALID,915.887,VALID,0,VALID,99.5056,VALID,-0.0169808,VALID,20.399,VALID,281,VALID,0,
2008-07-12, 00:22:00,VALID,915.869,VALID,0,VALID,99.5603,VALID,-0.0339617,VALID,20.3823,VALID,281,VALID,0,
2008-07-12, 00:23:00,VALID,915.845,VALID,0,VALID,99.6556,VALID,-0.0679233,VALID,20.3758,VALID,281,VALID,0,
2008-07-12, 00:24:00,VALID,915.838,VALID,0,VALID,99.704,VALID,-0.101885,VALID,20.3858,VALID,281,VALID,0,
2008-07-12, 00:25:00,VALID,915.836,VALID,0,VALID,99.6455,VALID,-0.0849042,VALID,20.3858,VALID,281,VALID,0,
2008-07-12, 00:26:00,VALID,915.816,VALID,0,VALID,99.7078,VALID,-0.0849042,VALID,20.379,VALID,280,VALID,0,
2008-07-12, 00:27:00,VALID,915.805,VALID,0,VALID,99.8171,VALID,-0.0849042,VALID,20.3793,VALID,280,VALID,0,
2008-07-12, 00:28:00,VALID,915.801,VALID,0,VALID,99.8655,VALID,-0.0849042,VALID,20.4055,VALID,280,VALID,0,
2008-07-12, 00:29:00,VALID,915.787,VALID,0,VALID,99.8197,VALID,-0.0679233,VALID,20.412,VALID,280,VALID,0,
2008-07-12, 00:30:00,VALID,915.785,VALID,0,VALID,99.8744,VALID,-0.0339617,VALID,20.4217,VALID,280,VALID,0,
2008-07-12, 00:31:00,VALID,915.785,VALID,0,VALID,99.9163,VALID,-0.0849042,VALID,20.4345,VALID,280,VALID,0,
2008-07-12, 00:32:00,VALID,915.774,VALID,0,VALID,99.8731,VALID,-0.0849042,VALID,20.4482,VALID,280,VALID,0,
2008-07-12, 00:33:00,VALID,915.766,VALID,0,VALID,99.7765,VALID,-0.0679233,VALID,20.4447,VALID,280,VALID,0,
2008-07-12, 00:34:00,VALID,915.774,VALID,0,VALID,99.6773,VALID,-0.0849042,VALID,20.4217,VALID,280,VALID,0,
2008-07-12, 00:35:00,VALID,915.759,VALID,0,VALID,99.7332,VALID,-0.0849042,VALID,20.4153,VALID,280,VALID,0,
2008-07-12, 00:36:00,VALID,915.749,VALID,0,VALID,99.7752,VALID,-0.0849042,VALID,20.4358,VALID,280,VALID,0,
2008-07-12, 00:37:00,VALID,915.736,VALID,0,VALID,99.7841,VALID,-0.0679233,VALID,20.4385,VALID,280,VALID,0,
2008-07-12, 00:38:00,VALID,915.725,VALID,0,VALID,99.8108,VALID,-0.0849042,VALID,20.4315,VALID,280,VALID,0,
2008-07-12, 00:39:00,VALID,915.717,VALID,0,VALID,99.8082,VALID,-0.0509425,VALID,20.418,VALID,280,VALID,0,
2008-07-12, 00:40:00,VALID,915.715,VALID,0,VALID,99.8324,VALID,-0.0679233,VALID,20.4217,VALID,280,VALID,0,
2008-07-12, 00:41:00,VALID,915.703,VALID,0,VALID,99.9125,VALID,-0.0849042,VALID,20.435,VALID,280,VALID,0,
2008-07-12, 00:42:00,VALID,915.686,VALID,0,VALID,99.9112,VALID,-0.0679233,VALID,20.438,VALID,280,VALID,0,
2008-07-12, 00:43:00,VALID,915.663,VALID,0,VALID,99.9138,VALID,-0.0679233,VALID,20.4407,VALID,280,VALID,0,
2008-07-12, 00:44:00,VALID,915.654,VALID,0,VALID,99.8934,VALID,-0.101885,VALID,20.4647,VALID,280,VALID,0,
2008-07-12, 00:45:00,VALID,915.625,VALID,0,VALID,99.8998,VALID,-0.0679233,VALID,20.4804,VALID,280,VALID,0,
2008-07-12, 00:46:00,VALID,915.62,VALID,0,VALID,99.8082,VALID,-0.101885,VALID,20.5134,VALID,280,VALID,0,
2008-07-12, 00:47:00,VALID,915.609,VALID,0,VALID,99.704,VALID,-0.101885,VALID,20.5394,VALID,280,VALID,0,
2008-07-12, 00:48:00,VALID,915.616,VALID,0,VALID,99.6836,VALID,-0.101885,VALID,20.5421,VALID,280,VALID,0,
2008-07-12, 00:49:00,VALID,915.613,VALID,0,VALID,99.5628,VALID,-0.101885,VALID,20.5486,VALID,280,VALID,0,
2008-07-12, 00:50:00,VALID,915.606,VALID,0,VALID,99.5132,VALID,-0.101885,VALID,20.5523,VALID,280,VALID,0,
2008-07-12, 00:51:00,VALID,915.6,VALID,0,VALID,99.4585,VALID,-0.0849042,VALID,20.5588,VALID,280,VALID,0,
2008-07-12, 00:52:00,VALID,915.585,VALID,0,VALID,99.3619,VALID,-0.135847,VALID,20.5743,VALID,280,VALID,0,
2008-07-12, 00:53:00,VALID,915.569,VALID,0,VALID,99.2525,VALID,-0.101885,VALID,20.6003,VALID,280,VALID,0,
2008-07-12, 00:54:00,VALID,915.555,VALID,0,VALID,99.1381,VALID,-0.101885,VALID,20.653,VALID,280,VALID,0,
2008-07-12, 00:55:00,VALID,915.539,VALID,0,VALID,98.9881,VALID,-0.0509425,VALID,20.6752,VALID,280,VALID,0,
2008-07-12, 00:56:00,VALID,915.526,VALID,0,VALID,98.8355,VALID,-0.0849042,VALID,20.6979,VALID,152,VALID,0,
2008-07-12, 00:57:00,VALID,915.513,VALID,0,VALID,98.6905,VALID,-0.0339617,VALID,20.7144,VALID,142,VALID,0.135476,
2008-07-12, 00:58:00,VALID,915.505,VALID,0,VALID,98.5951,VALID,-0.0849042,VALID,20.7311,VALID,129,VALID,0,
2008-07-12, 00:59:00,VALID,915.494,VALID,0,VALID,98.4909,VALID,-0.0849042,VALID,20.7344,VALID,129,VALID,0,
2008-07-12, 01:00:00,VALID,915.481,VALID,0,VALID,98.4247,VALID,-0.118866,VALID,20.7436,VALID,129,VALID,0,
2008-07-12, 01:01:00,VALID,915.464,VALID,0,VALID,98.3459,VALID,-0.0679233,VALID,20.7336,VALID,129,VALID,0,
2008-07-12, 01:02:00,VALID,915.442,VALID,0,VALID,98.3904,VALID,-0.0679233,VALID,20.7498,VALID,130,VALID,0,
2008-07-12, 01:03:00,VALID,915.409,VALID,0,VALID,98.2849,VALID,-0.101885,VALID,20.7896,VALID,137,VALID,0,
2008-07-12, 01:04:00,VALID,915.4,VALID,0,VALID,98.1933,VALID,-0.0679233,VALID,20.8185,VALID,128,VALID,0,
2008-07-12, 01:05:00,VALID,915.363,VALID,0,VALID,97.9962,VALID,-0.0679233,VALID,20.8472,VALID,117,VALID,0,
2008-07-12, 01:06:00,VALID,915.346,VALID,0,VALID,97.8156,VALID,-0.118866,VALID,20.874,VALID,77,VALID,0,
2008-07-12, 01:07:00,VALID,915.318,VALID,0,VALID,97.6859,VALID,-0.0849042,VALID,20.9097,VALID,78,VALID,0,
2008-07-12, 01:08:00,VALID,915.302,VALID,0,VALID,97.4672,VALID,-0.101885,VALID,20.9324,VALID,88,VALID,0,
2008-07-12, 01:09:00,VALID,915.264,VALID,0,VALID,97.3629,VALID,-0.0679233,VALID,20.9481,VALID,88,VALID,0,
2008-07-12, 01:10:00,VALID,915.243,VALID,0,VALID,97.2612,VALID,-0.0679233,VALID,20.9476,VALID,88,VALID,0,
2008-07-12, 01:11:00,VALID,915.198,VALID,0,VALID,97.1862,VALID,-0.0509425,VALID,20.9378,VALID,102,VALID,0,
2008-07-12, 01:12:00,VALID,915.173,VALID,0,VALID,97.1671,VALID,-0.0679233,VALID,20.9313,VALID,120,VALID,0,
2008-07-12, 01:13:00,VALID,915.144,VALID,0,VALID,97.2154,VALID,-0.0339617,VALID,20.9059,VALID,135,VALID,0,
2008-07-12, 01:14:00,VALID,915.122,VALID,0,VALID,97.2994,VALID,-0.0509425,VALID,20.8772,VALID,130,VALID,0,
2008-07-12, 01:15:00,VALID,915.094,VALID,0,VALID,97.452,VALID,-0.0679233,VALID,20.8088,VALID,133,VALID,0,
2008-07-12, 01:16:00,VALID,915.054,VALID,0,VALID,97.8029,VALID,-0.0849042,VALID,20.7439,VALID,151,VALID,0,
2008-07-12, 01:17:00,VALID,915.03,VALID,0,VALID,98.1056,VALID,-0.0509425,VALID,20.6922,VALID,145,VALID,0.0763081,
2008-07-12, 01:18:00,VALID,915.011,VALID,0,VALID,98.3751,VALID,-0.101885,VALID,20.6362,VALID,139,VALID,0,
2008-07-12, 01:19:00,VALID,914.976,VALID,0,VALID,98.5824,VALID,-0.0169808,VALID,20.6003,VALID,135,VALID,0,
2008-07-12, 01:20:00,VALID,914.947,VALID,0,VALID,98.8011,VALID,-0.0849042,VALID,20.5786,VALID,137,VALID,0,
2008-07-12, 01:21:00,VALID,914.932,VALID,0,VALID,99.0059,VALID,-0.0339617,VALID,20.5461,VALID,141,VALID,0,
2008-07-12, 01:22:00,VALID,914.905,VALID,0,VALID,99.1597,VALID,-0.0509425,VALID,20.5199,VALID,134,VALID,0,
2008-07-12, 01:23:00,VALID,914.889,VALID,0,VALID,99.3009,VALID,-0.0509425,VALID,20.5072,VALID,159,VALID,0,
2008-07-12, 01:24:00,VALID,914.872,VALID,0,VALID,99.3988,VALID,-0.0849042,VALID,20.4974,VALID,147,VALID,0,
2008-07-12, 01:25:00,VALID,914.862,VALID,0,VALID,99.4713,VALID,-0.0509425,VALID,20.4715,VALID,136,VALID,0,
2008-07-12, 01:26:00,VALID,914.841,VALID,0,VALID,99.5285,VALID,-0.101885,VALID,20.4485,VALID,142,VALID,0,
2008-07-12, 01:27:00,VALID,914.822,VALID,0,VALID,99.7548,VALID,-0.101885,VALID,20.4387,VALID,162,VALID,0.424964,
2008-07-12, 01:28:00,VALID,914.801,VALID,0,VALID,99.8718,VALID,-0.0849042,VALID,20.432,VALID,163,VALID,0.203852,
2008-07-12, 01:29:00,VALID,914.77,VALID,0,VALID,99.8655,VALID,-0.0509425,VALID,20.4223,VALID,167,VALID,0,
2008-07-12, 01:30:00,VALID,914.758,VALID,0,VALID,99.9151,VALID,-0.0509425,VALID,20.413,VALID,173,VALID,0,
2008-07-12, 01:31:00,VALID,914.757,VALID,0,VALID,99.9367,VALID,-0.0679233,VALID,20.3901,VALID,177,VALID,0,
2008-07-12, 01:32:00,VALID,914.733,VALID,0,VALID,99.999,VALID,-0.101885,VALID,20.3673,VALID,167,VALID,0,
2008-07-12, 01:33:00,VALID,914.732,VALID,0,VALID,100,VALID,-0.0509425,VALID,20.3606,VALID,157,VALID,0,
2008-07-12, 01:34:00,VALID,914.703,VALID,0,VALID,100,VALID,-0.0849042,VALID,20.3349,VALID,164,VALID,0,
2008-07-12, 01:35:00,VALID,914.672,VALID,0,VALID,100,VALID,-0.0849042,VALID,20.2989,VALID,174,VALID,0.369336,
2008-07-12, 01:36:00,VALID,914.676,VALID,0,VALID,100,VALID,-0.0849042,VALID,20.2667,VALID,168,VALID,0.759084,
2008-07-12, 01:37:00,VALID,914.645,VALID,0,VALID,100,VALID,-0.0679233,VALID,20.2408,VALID,168,VALID,0.491477,
2008-07-12, 01:38:00,VALID,914.62,VALID,0,VALID,100,VALID,-0.0849042,VALID,20.1948,VALID,174,VALID,0.783975,
2008-07-12, 01:39:00,VALID,914.623,VALID,0,VALID,100,VALID,-0.0849042,VALID,20.1791,VALID,176,VALID,0.148983,
2008-07-12, 01:40:00,VALID,914.609,VALID,0,VALID,100,VALID,-0.0679233,VALID,20.1466,VALID,176,VALID,0.224276,
2008-07-12, 01:41:00,VALID,914.589,VALID,0,VALID,100,VALID,-0.0509425,VALID,20.1179,VALID,177,VALID,0.828852,
2008-07-12, 01:42:00,VALID,914.574,VALID,0,VALID,100,VALID,-0.0679233,VALID,20.1237,VALID,179,VALID,0.961124,
2008-07-12, 01:43:00,VALID,914.548,VALID,0,VALID,100,VALID,-0.0849042,VALID,20.1631,VALID,175,VALID,0.325408,
2008-07-12, 01:44:00,VALID,914.553,VALID,0,VALID,100,VALID,-0.101885,VALID,20.1729,VALID,177,VALID,0,
2008-07-12, 01:45:00,VALID,914.535,VALID,0,VALID,100,VALID,-0.0509425,VALID,20.1496,VALID,177,VALID,0,
2008-07-12, 01:46:00,VALID,914.534,VALID,0,VALID,100,VALID,-0.0849042,VALID,20.1404,VALID,170,VALID,0.232701,
2008-07-12, 01:47:00,VALID,914.544,VALID,0,VALID,100,VALID,-0.0339617,VALID,20.1531,VALID,170,VALID,0.490916,
2008-07-12, 01:48:00,VALID,914.569,VALID,0,VALID,100,VALID,-0.0169808,VALID,20.1494,VALID,162,VALID,0.249047,
2008-07-12, 01:49:00,VALID,914.58,VALID,0,VALID,100,VALID,-0.0339617,VALID,20.1326,VALID,148,VALID,0.0736607,
2008-07-12, 01:50:00,VALID,914.614,VALID,0,VALID,100,VALID,-0.0679233,VALID,20.1264,VALID,143,VALID,0,
2008-07-12, 01:51:00,VALID,914.625,VALID,0,VALID,100,VALID,-0.0509425,VALID,20.1172,VALID,143,VALID,0,
2008-07-12, 01:52:00,VALID,914.639,VALID,0,VALID,100,VALID,-0.0339617,VALID,20.1072,VALID,143,VALID,0,
2008-07-12, 01:53:00,VALID,914.655,VALID,0,VALID,100,VALID,-0.0339617,VALID,20.1072,VALID,149,VALID,0,
2008-07-12, 01:54:00,VALID,914.673,VALID,0,VALID,100,VALID,-0.101885,VALID,20.1172,VALID,164,VALID,0,
2008-07-12, 01:55:00,VALID,914.675,VALID,0,VALID,100,VALID,-0.0679233,VALID,20.1337,VALID,193,VALID,0.103871,
2008-07-12, 01:56:00,VALID,914.7,VALID,0,VALID,100,VALID,-0.101885,VALID,20.1299,VALID,261,VALID,0.0124628,
2008-07-12, 01:57:00,VALID,914.705,VALID,0,VALID,100,VALID,-0.0509425,VALID,20.1202,VALID,261,VALID,0,
2008-07-12, 01:58:00,VALID,914.732,VALID,0,VALID,100,VALID,-0.118866,VALID,20.098,VALID,261,VALID,0,
2008-07-12, 01:59:00,VALID,914.738,VALID,0,VALID,100,VALID,-0.101885,VALID,20.098,VALID,261,VALID,0,
2008-07-12, 02:00:00,VALID,914.753,VALID,0,VALID,100,VALID,-0.101885,VALID,20.0852,VALID,261,VALID,0,
2008-07-12, 02:01:00,VALID,914.738,VALID,0,VALID,100,VALID,-0.101885,VALID,20.0817,VALID,258,VALID,0,
2008-07-12, 02:02:00,VALID,914.742,VALID,0,VALID,100,VALID,-0.118866,VALID,20.0653,VALID,214,VALID,0.196915,
2008-07-12, 02:03:00,VALID,914.746,VALID,0,VALID,100,VALID,-0.101885,VALID,20.046,VALID,214,VALID,0,
2008-07-12, 02:04:00,VALID,914.743,VALID,0,VALID,100,VALID,-0.0679233,VALID,20.0193,VALID,214,VALID,0,
2008-07-12, 02:05:00,VALID,914.74,VALID,0,VALID,100,VALID,-0.101885,VALID,20.0166,VALID,214,VALID,0,
2008-07-12, 02:06:00,VALID,914.725,VALID,0,VALID,100,VALID,-0.0679233,VALID,20.0091,VALID,214,VALID,0,
2008-07-12, 02:07:00,VALID,914.727,VALID,0,VALID,100,VALID,-0.101885,VALID,20.0158,VALID,214,VALID,0,
2008-07-12, 02:08:00,VALID,914.726,VALID,0,VALID,100,VALID,-0.118866,VALID,20.036,VALID,216,VALID,0,
2008-07-12, 02:09:00,VALID,914.706,VALID,0,VALID,100,VALID,-0.135847,VALID,20.0455,VALID,216,VALID,0,
2008-07-12, 02:10:00,VALID,914.697,VALID,0,VALID,100,VALID,-0.0849042,VALID,20.0585,VALID,216,VALID,0,
2008-07-12, 02:11:00,VALID,914.684,VALID,0,VALID,100,VALID,-0.0849042,VALID,20.062,VALID,216,VALID,0,
2008-07-12, 02:12:00,VALID,914.673,VALID,0,VALID,100,VALID,-0.101885,VALID,20.0812,VALID,217,VALID,0,
2008-07-12, 02:13:00,VALID,914.669,VALID,0,VALID,100,VALID,-0.0509425,VALID,20.1069,VALID,216,VALID,0,
2008-07-12, 02:14:00,VALID,914.65,VALID,0,VALID,100,VALID,-0.135847,VALID,20.1202,VALID,216,VALID,0,
2008-07-12, 02:15:00,VALID,914.654,VALID,0,VALID,100,VALID,-0.101885,VALID,20.1237,VALID,216,VALID,0,
2008-07-12, 02:16:00,VALID,914.645,VALID,0,VALID,100,VALID,-0.101885,VALID,20.0555,VALID,216,VALID,0,
2008-07-12, 02:17:00,VALID,914.638,VALID,0,VALID,100,VALID,-0.101885,VALID,19.9579,VALID,216,VALID,0,
2008-07-12, 02:18:00,VALID,914.644,VALID,0,VALID,100,VALID,-0.101885,VALID,19.9125,VALID,78,VALID,0,
2008-07-12, 02:19:00,VALID,914.637,VALID,0,VALID,100,VALID,-0.0339617,VALID,19.8216,VALID,58,VALID,0,
2008-07-12, 02:20:00,VALID,914.655,VALID,0,VALID,100,VALID,-0.0679233,VALID,19.7724,VALID,57,VALID,0,
2008-07-12, 02:21:00,VALID,914.656,VALID,0,VALID,100,VALID,-0.0849042,VALID,19.7467,VALID,57,VALID,0,
2008-07-12, 02:22:00,VALID,914.659,VALID,0,VALID,100,VALID,-0.101885,VALID,19.7208,VALID,57,VALID,0,
2008-07-12, 02:23:00,VALID,914.679,VALID,0,VALID,100,VALID,-0.101885,VALID,19.7602,VALID,57,VALID,0,
2008-07-12, 02:24:00,VALID,914.688,VALID,0,VALID,100,VALID,-0.0679233,VALID,19.7859,VALID,44,VALID,0,
2008-07-12, 02:25:00,VALID,914.693,VALID,0,VALID,100,VALID,-0.0679233,VALID,19.7789,VALID,43,VALID,0,
2008-07-12, 02:26:00,VALID,914.697,VALID,0,VALID,100,VALID,-0.101885,VALID,19.757,VALID,42,VALID,0,
2008-07-12, 02:27:00,VALID,914.701,VALID,0,VALID,100,VALID,-0.0679233,VALID,19.7273,VALID,42,VALID,0,
2008-07-12, 02:28:00,VALID,914.698,VALID,0,VALID,100,VALID,-0.0339617,VALID,19.727,VALID,42,VALID,0,
2008-07-12, 02:29:00,VALID,914.691,VALID,0,VALID,100,VALID,-0.0849042,VALID,19.7437,VALID,42,VALID,0,
2008-07-12, 02:30:00,VALID,914.702,VALID,0,VALID,100,VALID,-0.0849042,VALID,19.7729,VALID,62,VALID,0,
2008-07-12, 02:31:00,VALID,914.699,VALID,0,VALID,100,VALID,-0.0849042,VALID,19.8149,VALID,156,VALID,0,
2008-07-12, 02:32:00,VALID,914.691,VALID,0,VALID,100,VALID,-0.101885,VALID,19.886,VALID,159,VALID,0,
2008-07-12, 02:33:00,VALID,914.683,VALID,0,VALID,100,VALID,-0.0509425,VALID,19.9349,VALID,163,VALID,0,
2008-07-12, 02:34:00,VALID,914.69,VALID,0,VALID,100,VALID,-0.0849042,VALID,19.9704,VALID,163,VALID,0,
2008-07-12, 02:35:00,VALID,914.671,VALID,0,VALID,100,VALID,-0.0509425,VALID,19.9804,VALID,163,VALID,0,
2008-07-12, 02:36:00,VALID,914.656,VALID,0,VALID,100,VALID,-0.0679233,VALID,19.9771,VALID,163,VALID,0,
2008-07-12, 02:37:00,VALID,914.642,VALID,0,VALID,100,VALID,-0.0679233,VALID,19.9774,VALID,163,VALID,0,
2008-07-12, 02:38:00,VALID,914.622,VALID,0,VALID,100,VALID,-0.0679233,VALID,19.9639,VALID,163,VALID,0,
2008-07-12, 02:39:00,VALID,914.597,VALID,0,VALID,100,VALID,-0.0679233,VALID,19.9377,VALID,163,VALID,0,
2008-07-12, 02:40:00,VALID,914.575,VALID,0,VALID,100,VALID,-0.0339617,VALID,19.925,VALID,163,VALID,0,
2008-07-12, 02:41:00,VALID,914.529,VALID,0,VALID,100,VALID,-0.101885,VALID,19.9055,VALID,163,VALID,0,
2008-07-12, 02:42:00,VALID,914.505,VALID,0,VALID,100,VALID,-0.0849042,VALID,19.8795,VALID,163,VALID,0,
2008-07-12, 02:43:00,VALID,914.472,VALID,0,VALID,100,VALID,-0.101885,VALID,19.8668,VALID,163,VALID,0,
2008-07-12, 02:44:00,VALID,914.449,VALID,0,VALID,100,VALID,-0.118866,VALID,19.8571,VALID,163,VALID,0,
2008-07-12, 02:45:00,VALID,914.412,VALID,0,VALID,100,VALID,-0.101885,VALID,19.8176,VALID,153,VALID,0,
2008-07-12, 02:46:00,VALID,914.393,VALID,0,VALID,100,VALID,-0.101885,VALID,19.7757,VALID,122,VALID,0,
2008-07-12, 02:47:00,VALID,914.364,VALID,0,VALID,100,VALID,-0.0849042,VALID,19.727,VALID,118,VALID,0,
2008-07-12, 02:48:00,VALID,914.349,VALID,0,VALID,100,VALID,-0.118866,VALID,19.7143,VALID,124,VALID,0.0420387,
2008-07-12, 02:49:00,VALID,914.324,VALID,0,VALID,100,VALID,-0.0849042,VALID,19.7495,VALID,118,VALID,0,
2008-07-12, 02:50:00,VALID,914.328,VALID,0,VALID,100,VALID,-0.0849042,VALID,19.74,VALID,111,VALID,0,
2008-07-12, 02:51:00,VALID,914.31,VALID,0,VALID,100,VALID,-0.0849042,VALID,19.727,VALID,118,VALID,0,
2008-07-12, 02:52:00,VALID,914.282,VALID,0,VALID,100,VALID,-0.118866,VALID,19.7235,VALID,121,VALID,0,
2008-07-12, 02:53:00,VALID,914.258,VALID,0,VALID,100,VALID,-0.101885,VALID,19.7335,VALID,122,VALID,0,
2008-07-12, 02:54:00,VALID,914.244,VALID,0,VALID,100,VALID,-0.0849042,VALID,19.7337,VALID,117,VALID,0,
2008-07-12, 02:55:00,VALID,914.219,VALID,0,VALID,100,VALID,-0.0679233,VALID,19.7632,VALID,117,VALID,0,
2008-07-12, 02:56:00,VALID,914.185,VALID,0,VALID,100,VALID,-0.0849042,VALID,19.7727,VALID,122,VALID,0,
2008-07-12, 02:57:00,VALID,914.155,VALID,0,VALID,100,VALID,-0.118866,VALID,19.7692,VALID,132,VALID,0,
2008-07-12, 02:58:00,VALID,914.15,VALID,0,VALID,100,VALID,-0.101885,VALID,19.7659,VALID,123,VALID,0,
2008-07-12, 02:59:00,VALID,914.146,VALID,0,VALID,100,VALID,-0.101885,VALID,19.743,VALID,141,VALID,0,
2008-07-12, 03:00:00,VALID,914.147,VALID,0,VALID,100,VALID,-0.101885,VALID,19.721,VALID,143,VALID,0.0414807,
2008-07-12, 03:01:00,VALID,914.138,VALID,0,VALID,100,VALID,-0.0849042,VALID,19.6753,VALID,151,VALID,0.283984,
2008-07-12, 03:02:00,VALID,914.159,VALID,0,VALID,100,VALID,-0.0679233,VALID,19.6332,VALID,125,VALID,0.590511,
2008-07-12, 03:03:00,VALID,914.158,VALID,0,VALID,100,VALID,-0.118866,VALID,19.5977,VALID,152,VALID,0.775436,
2008-07-12, 03:04:00,VALID,914.151,VALID,0,VALID,100,VALID,-0.101885,VALID,19.5418,VALID,159,VALID,0.876272,
2008-07-12, 03:05:00,VALID,914.153,VALID,0,VALID,100,VALID,-0.101885,VALID,19.5228,VALID,152,VALID,0.792268,
2008-07-12, 03:06:00,VALID,914.157,VALID,0,VALID,100,VALID,-0.101885,VALID,19.4934,VALID,146,VALID,0.777439,
2008-07-12, 03:07:00,VALID,914.149,VALID,0,VALID,100,VALID,-0.101885,VALID,19.4707,VALID,145,VALID,1.27961,
2008-07-12, 03:08:00,VALID,914.133,VALID,0,VALID,100,VALID,-0.101885,VALID,19.4412,VALID,140,VALID,1.08721,
2008-07-12, 03:09:00,VALID,914.118,VALID,0,VALID,100,VALID,-0.101885,VALID,19.4252,VALID,139,VALID,0.910866,
2008-07-12, 03:10:00,VALID,914.105,VALID,0,VALID,100,VALID,-0.0849042,VALID,19.3926,VALID,139,VALID,0.350446,
2008-07-12, 03:11:00,VALID,914.1,VALID,0,VALID,100,VALID,-0.118866,VALID,19.3539,VALID,143,VALID,0,
2008-07-12, 03:12:00,VALID,914.102,VALID,0,VALID,100,VALID,-0.118866,VALID,19.3471,VALID,153,VALID,0,
2008-07-12, 03:13:00,VALID,914.111,VALID,0,VALID,100,VALID,-0.0849042,VALID,19.3536,VALID,144,VALID,0,
2008-07-12, 03:14:00,VALID,914.12,VALID,0,VALID,100,VALID,-0.135847,VALID,19.3668,VALID,143,VALID,0.0704942,
2008-07-12, 03:15:00,VALID,914.131,VALID,0,VALID,100,VALID,-0.118866,VALID,19.4123,VALID,131,VALID,0,
2008-07-12, 03:16:00,VALID,914.145,VALID,0,VALID,100,VALID,-0.101885,VALID,19.4482,VALID,120,VALID,0,
2008-07-12, 03:17:00,VALID,914.172,VALID,0,VALID,100,VALID,-0.101885,VALID,19.4677,VALID,119,VALID,0,
2008-07-12, 03:18:00,VALID,914.182,VALID,0,VALID,100,VALID,-0.118866,VALID,19.4649,VALID,117,VALID,0,
2008-07-12, 03:19:00,VALID,914.174,VALID,0,VALID,100,VALID,-0.118866,VALID,19.4999,VALID,113,VALID,0,
2008-07-12, 03:20:00,VALID,914.16,VALID,0,VALID,100,VALID,-0.101885,VALID,19.5483,VALID,113,VALID,0,
2008-07-12, 03:21:00,VALID,914.143,VALID,0,VALID,100,VALID,-0.0849042,VALID,19.5842,VALID,113,VALID,0,
2008-07-12, 03:22:00,VALID,914.138,VALID,0,VALID,100,VALID,-0.101885,VALID,19.5872,VALID,113,VALID,0,
2008-07-12, 03:23:00,VALID,914.114,VALID,0,VALID,100,VALID,-0.152827,VALID,19.598,VALID,113,VALID,0,
2008-07-12, 03:24:00,VALID,914.117,VALID,0,VALID,100,VALID,-0.101885,VALID,19.6012,VALID,113,VALID,0,
2008-07-12, 03:25:00,VALID,914.105,VALID,0,VALID,100,VALID,-0.152827,VALID,19.5912,VALID,113,VALID,0,
2008-07-12, 03:26:00,VALID,914.109,VALID,0,VALID,100,VALID,-0.0169808,VALID,19.5827,VALID,114,VALID,0,
2008-07-12, 03:27:00,VALID,914.13,VALID,0,VALID,100,VALID,-0.0169808,VALID,19.5763,VALID,114,VALID,0,
2008-07-12, 03:28:00,VALID,914.14,VALID,0,VALID,100,VALID,-0.0169808,VALID,19.5573,VALID,114,VALID,0,
2008-07-12, 03:29:00,VALID,914.151,VALID,0,VALID,100,VALID,-0.0509425,VALID,19.4829,VALID,114,VALID,0,
2008-07-12, 03:30:00,VALID,914.179,VALID,0,VALID,100,VALID,0.0169808,VALID,19.3294,VALID,114,VALID,0,
2008-07-12, 03:31:00,VALID,914.174,VALID,0,VALID,100,VALID,0.0169808,VALID,19.1932,VALID,114,VALID,0,
2008-07-12, 03:32:00,VALID,914.172,VALID,0,VALID,100,VALID,-0.0169808,VALID,19.2194,VALID,114,VALID,0,
2008-07-12, 03:33:00,VALID,914.188,VALID,0,VALID,100,VALID,-0.0169808,VALID,19.2648,VALID,114,VALID,0,
2008-07-12, 03:34:00,VALID,914.191,VALID,0,VALID,100,VALID,-0.0169808,VALID,19.3364,VALID,114,VALID,0,
2008-07-12, 03:35:00,VALID,914.205,VALID,0,VALID,100,VALID,-0.0169808,VALID,19.3684,VALID,114,VALID,0,
2008-07-12, 03:36:00,VALID,914.209,VALID,0,VALID,100,VALID,-0.0169808,VALID,19.3848,VALID,114,VALID,0,
2008-07-12, 03:37:00,VALID,914.229,VALID,0,VALID,100,VALID,0,VALID,19.3821,VALID,114,VALID,0,
2008-07-12, 03:38:00,VALID,914.243,VALID,0,VALID,100,VALID,-0.0169808,VALID,19.3362,VALID,114,VALID,0,
2008-07-12, 03:39:00,VALID,914.266,VALID,0,VALID,100,VALID,-0.0169808,VALID,19.317,VALID,114,VALID,0,
2008-07-12, 03:40:00,VALID,914.256,VALID,0,VALID,100,VALID,-0.0339617,VALID,19.2945,VALID,114,VALID,0,
2008-07-12, 03:41:00,VALID,914.268,VALID,0,VALID,100,VALID,-0.135847,VALID,19.2857,VALID,126,VALID,0,
2008-07-12, 03:42:00,VALID,914.259,VALID,0,VALID,100,VALID,-0.101885,VALID,19.2698,VALID,133,VALID,0,
2008-07-12, 03:43:00,VALID,914.256,VALID,0,VALID,100,VALID,-0.118866,VALID,19.2695,VALID,138,VALID,1.04199,